Terminal Aerodrome Forecast
Issued by NWS

Home | Current Version | Previous Version | Text Only | Print | Product List | Glossary On
Versions: 1 2 3 4 5 6 7 8 9 10 11 12 13 14 15
000
FTUS46 KMFR 221700
TAFOTH
TAF
KOTH 221740Z 2218/2318 21006KT P6SM BKN025
     FM222000 23010KT P6SM SCT030 BKN150
     FM230400 18005KT P6SM BKN030
     FM230800 18005KT P6SM -RA SCT015 OVC025
     FM231000 18005KT 4SM -RA BR OVC015=

USA.gov is the U.S. government's official web portal to all federal, state and local government web resources and services.